This is the latest recevied weather packets stored in our database for station/object KC5DP. If no packets are shown the sender has not sent any weather packets the latest 10 day(s).
| Time | Temp. | Humidity | Pressure | Rain* | Wind** | Luminosity | Snow |
|---|---|---|---|---|---|---|---|
| 1777701217 | 11.11° C | 99% | 1013.2 hPa | 1.78 mm | - | 0 W/m² | - |
| 1777700917 | 11.67° C | 99% | 1013.1 hPa | 3.05 mm | - | 0 W/m² | - |
| 1777700614 | 11.67° C | 99% | 1012.9 hPa | 3.05 mm | - | 0 W/m² | - |
| 1777700311 | 11.67° C | 99% | 1013.6 hPa | 4.32 mm | - | 0 W/m² | - |
| 1777700008 | 11.67° C | 99% | 1014 hPa | 1.27 mm | - | 0 W/m² | - |
| 1777699706 | 11.67° C | 99% | 1013.7 hPa | 0 mm | - | 0 W/m² | - |
| 1777699404 | 11.67° C | 99% | 1013.1 hPa | 0 mm | - | 0 W/m² | - |
| 1777699101 | 11.67° C | 99% | 1012.7 hPa | 0 mm | - | 0 W/m² | - |
| 1777698800 | 11.67° C | 99% | 1012.9 hPa | 0 mm | - | 0 W/m² | - |
| 1777698496 | 11.67° C | 99% | 1012.8 hPa | 0 mm | - | 0 W/m² | - |
| 1777698192 | 11.67° C | 99% | 1012.8 hPa | 0 mm | - | 0 W/m² | - |
| 1777697889 | 11.11° C | 99% | 1013 hPa | 0 mm | - | 0 W/m² | - |
| 1777697586 | 11.11° C | 99% | 1012.7 hPa | 0 mm | - | 0 W/m² | - |
| 1777697283 | 11.67° C | 99% | 1012.9 hPa | 0 mm | - | 0 W/m² | - |
| 1777696979 | 11.11° C | 99% | 1012.7 hPa | 0 mm | - | 0 W/m² | - |
| 1777696677 | 11.67° C | 99% | 1012.7 hPa | 0 mm | - | 0 W/m² | - |
| 1777696374 | 11.67° C | 99% | 1012.9 hPa | 0 mm | - | 0 W/m² | - |
| 1777696073 | 11.67° C | 99% | 1012.7 hPa | 1.78 mm | - | 0 W/m² | - |
| 1777695771 | 11.67° C | 99% | 1012.7 hPa | 1.78 mm | - | 0 W/m² | - |
| 1777695468 | 11.67° C | 99% | 1012.5 hPa | 1.27 mm | - | 0 W/m² | - |
| 1777695166 | 11.67° C | 99% | 1012.5 hPa | 1.27 mm | - | 0 W/m² | - |
| 1777694862 | 11.67° C | 99% | 1012.6 hPa | 0 mm | - | 0 W/m² | - |
| 1777694559 | 11.67° C | 99% | 1012.6 hPa | 0 mm | - | 0 W/m² | - |
| 1777694255 | 11.67° C | 99% | 1012.7 hPa | 0 mm | - | 0 W/m² | - |
| 1777693952 | 11.67° C | 99% | 1012.7 hPa | 0 mm | - | 0 W/m² | - |
* Rain latest hour (hover to see other rain measurements)
** Current wind speed in m/s (hover to see current wind gust speed)